Time,TemperatureF,DewpointF,PressureIn,WindDirection,WindDirectionDegrees,WindSpeedMPH,WindSpeedGustMPH,Humidity,HourlyPrecipIn,Conditions,Clouds,dailyrainin,SoftwareType,DateUTC
2013-04-07 00:12:00,63.0,57.0,29.82,SE,146,0.0,0.0,80,0.00,,,0.00,weatherlink.com 1.10,2013-04-07 05:12:00,
2013-04-07 00:27:00,63.1,57.0,29.82,SE,145,0.0,0.0,80,0.00,,,0.00,weatherlink.com 1.10,2013-04-07 05:27:00,
2013-04-07 00:42:00,62.8,57.0,29.82,SE,144,0.0,0.0,82,0.00,,,0.00,weatherlink.com 1.10,2013-04-07 05:42:00,
2013-04-07 00:57:00,62.8,57.0,29.82,SE,136,0.0,4.0,82,0.00,,,0.00,weatherlink.com 1.10,2013-04-07 05:57:00,
2013-04-07 03:03:00,59.3,56.0,29.80,ESE,103,0.0,0.0,89,0.00,,,0.00,weatherlink.com 1.10,2013-04-07 08:03:00,
2013-04-07 03:43:00,58.7,56.0,29.79,ESE,119,0.0,0.0,90,0.00,,,0.00,weatherlink.com 1.10,2013-04-07 08:43:00,
2013-04-07 03:58:00,58.5,56.0,29.80,ESE,119,0.0,0.0,91,0.00,,,0.00,weatherlink.com 1.10,2013-04-07 08:58:00,
2013-04-07 04:13:00,58.4,56.0,29.79,ESE,119,0.0,0.0,91,0.00,,,0.00,weatherlink.com 1.10,2013-04-07 09:13:00,
2013-04-07 04:28:00,58.1,56.0,29.79,ESE,119,0.0,0.0,91,0.00,,,0.00,weatherlink.com 1.10,2013-04-07 09:28:00,
2013-04-07 04:43:00,58.2,56.0,29.78,SE,146,0.0,1.0,92,0.00,,,0.00,weatherlink.com 1.10,2013-04-07 09:43:00,
2013-04-07 04:58:00,58.5,56.0,29.78,SE,140,0.0,4.0,92,0.00,,,0.00,weatherlink.com 1.10,2013-04-07 09:58:00,
2013-04-07 05:13:00,58.7,56.0,29.78,SSE,148,4.0,5.0,91,0.00,,,0.00,weatherlink.com 1.10,2013-04-07 10:13:00,
2013-04-07 05:28:00,58.8,56.0,29.78,SSE,155,0.0,6.0,91,0.00,,,0.00,weatherlink.com 1.10,2013-04-07 10:28:00,
2013-04-07 05:43:00,58.9,56.0,29.78,SSE,149,0.0,7.0,91,0.00,,,0.00,weatherlink.com 1.10,2013-04-07 10:43:00,
2013-04-07 05:58:00,59.0,56.0,29.79,SSE,154,5.0,6.0,91,0.00,,,0.00,weatherlink.com 1.10,2013-04-07 10:58:00,
2013-04-07 06:13:00,58.9,56.0,29.79,SE,140,4.0,8.0,91,0.00,,,0.00,weatherlink.com 1.10,2013-04-07 11:13:00,
2013-04-07 06:28:00,58.8,56.0,29.79,SE,145,3.0,7.0,91,0.00,,,0.00,weatherlink.com 1.10,2013-04-07 11:28:00,
2013-04-07 06:43:00,58.7,56.0,29.79,SE,132,5.0,10.0,92,0.00,,,0.00,weatherlink.com 1.10,2013-04-07 11:43:00,
2013-04-07 06:58:00,58.8,57.0,29.79,SSE,147,5.0,9.0,92,0.00,,,0.00,weatherlink.com 1.10,2013-04-07 11:58:00,
2013-04-07 07:13:00,59.0,57.0,29.79,ESE,118,7.0,10.0,92,0.00,,,0.00,weatherlink.com 1.10,2013-04-07 12:13:00,
2013-04-07 07:28:00,59.5,57.0,29.80,SSE,153,6.0,12.0,92,0.00,,,0.00,weatherlink.com 1.10,2013-04-07 12:28:00,
2013-04-07 07:43:00,59.9,57.0,29.80,SE,140,10.0,11.0,91,0.00,,,0.00,weatherlink.com 1.10,2013-04-07 12:43:00,
2013-04-07 07:58:00,60.3,58.0,29.80,South,172,4.0,16.0,91,0.00,,,0.00,weatherlink.com 1.10,2013-04-07 12:58:00,
2013-04-07 08:13:00,60.6,58.0,29.81,SE,146,11.0,14.0,90,0.00,,,0.00,weatherlink.com 1.10,2013-04-07 13:13:00,
2013-04-07 08:28:00,61.0,58.0,29.81,South,188,10.0,13.0,90,0.00,,,0.00,weatherlink.com 1.10,2013-04-07 13:28:00,
2013-04-07 08:43:00,61.5,58.0,29.81,SSE,162,5.0,16.0,89,0.00,,,0.00,weatherlink.com 1.10,2013-04-07 13:43:00,
2013-04-07 08:58:00,62.2,59.0,29.81,SSE,162,9.0,15.0,88,0.00,,,0.00,weatherlink.com 1.10,2013-04-07 13:58:00,
2013-04-07 09:13:00,62.5,59.0,29.81,SSE,148,9.0,22.0,87,0.00,,,0.00,weatherlink.com 1.10,2013-04-07 14:13:00,
2013-04-07 09:28:00,62.9,59.0,29.81,SSE,153,12.0,20.0,87,0.00,,,0.00,weatherlink.com 1.10,2013-04-07 14:28:00,
2013-04-07 10:28:00,64.5,60.0,29.81,SE,139,7.0,17.0,85,0.00,,,0.00,weatherlink.com 1.10,2013-04-07 15:28:00,
2013-04-07 10:59:00,65.4,60.0,29.81,SSE,151,9.0,20.0,83,0.00,,,0.00,weatherlink.com 1.10,2013-04-07 15:59:00,
2013-04-07 11:14:00,66.1,61.0,29.81,SSE,166,11.0,17.0,82,0.00,,,0.00,weatherlink.com 1.10,2013-04-07 16:14:00,
2013-04-07 11:29:00,66.3,60.0,29.80,SSE,163,6.0,19.0,81,0.00,,,0.00,weatherlink.com 1.10,2013-04-07 16:29:00,
2013-04-07 11:44:00,67.0,61.0,29.80,South,186,3.0,17.0,80,0.00,,,0.00,weatherlink.com 1.10,2013-04-07 16:44:00,
2013-04-07 11:59:00,67.7,61.0,29.79,SE,142,10.0,19.0,79,0.00,,,0.00,weatherlink.com 1.10,2013-04-07 16:59:00,
2013-04-07 12:14:00,67.8,61.0,29.79,SSE,161,12.0,21.0,78,0.00,,,0.00,weatherlink.com 1.10,2013-04-07 17:14:00,
2013-04-07 12:30:00,67.8,61.0,29.77,South,169,10.0,21.0,79,0.00,,,0.00,weatherlink.com 1.10,2013-04-07 17:30:00,
2013-04-07 12:44:00,67.7,61.0,29.77,SSE,147,20.0,21.0,78,0.00,,,0.00,weatherlink.com 1.10,2013-04-07 17:44:00,
2013-04-07 12:59:00,67.9,61.0,29.77,SSE,163,8.0,23.0,78,0.00,,,0.00,weatherlink.com 1.10,2013-04-07 17:59:00,
2013-04-07 13:14:00,68.2,61.0,29.75,SSE,162,17.0,24.0,77,0.00,,,0.00,weatherlink.com 1.10,2013-04-07 18:14:00,
2013-04-07 13:29:00,69.2,61.0,29.75,SSE,155,11.0,19.0,76,0.00,,,0.00,weatherlink.com 1.10,2013-04-07 18:29:00,
2013-04-07 13:44:00,68.9,61.0,29.74,SSE,161,18.0,20.0,76,0.00,,,0.00,weatherlink.com 1.10,2013-04-07 18:44:00,
2013-04-07 13:59:00,70.0,61.0,29.73,South,173,4.0,22.0,74,0.00,,,0.00,weatherlink.com 1.10,2013-04-07 18:59:00,
2013-04-07 14:14:00,70.2,61.0,29.73,South,176,12.0,22.0,72,0.00,,,0.00,weatherlink.com 1.10,2013-04-07 19:14:00,
2013-04-07 14:29:00,70.8,61.0,29.72,SE,138,13.0,21.0,71,0.00,,,0.00,weatherlink.com 1.10,2013-04-07 19:29:00,
2013-04-07 14:59:00,71.1,61.0,29.71,SE,146,15.0,25.0,70,0.00,,,0.00,weatherlink.com 1.10,2013-04-07 19:59:00,
2013-04-07 15:14:00,71.2,61.0,29.71,South,173,13.0,22.0,70,0.00,,,0.00,weatherlink.com 1.10,2013-04-07 20:14:00,
2013-04-07 15:29:00,70.7,60.0,29.71,SSE,162,20.0,26.0,70,0.00,,,0.00,weatherlink.com 1.10,2013-04-07 20:29:00,
2013-04-07 15:44:00,70.7,61.0,29.70,SSE,164,15.0,23.0,71,0.00,,,0.00,weatherlink.com 1.10,2013-04-07 20:44:00,
2013-04-07 15:59:00,70.5,61.0,29.69,SSE,153,19.0,25.0,71,0.00,,,0.00,weatherlink.com 1.10,2013-04-07 20:59:00,
2013-04-07 16:14:00,70.8,61.0,29.69,SSE,156,19.0,26.0,70,0.00,,,0.00,weatherlink.com 1.10,2013-04-07 21:14:00,
2013-04-07 16:29:00,70.6,61.0,29.68,SE,144,11.0,25.0,72,0.00,,,0.00,weatherlink.com 1.10,2013-04-07 21:29:00,
2013-04-07 16:44:00,70.7,61.0,29.68,South,171,7.0,30.0,72,0.00,,,0.00,weatherlink.com 1.10,2013-04-07 21:44:00,
2013-04-07 16:59:00,69.9,61.0,29.68,SE,146,9.0,28.0,74,0.00,,,0.00,weatherlink.com 1.10,2013-04-07 21:59:00,
2013-04-07 17:14:00,69.7,61.0,29.68,SE,144,12.0,28.0,75,0.00,,,0.00,weatherlink.com 1.10,2013-04-07 22:14:00,
2013-04-07 17:29:00,69.7,61.0,29.67,South,180,16.0,26.0,74,0.00,,,0.00,weatherlink.com 1.10,2013-04-07 22:29:00,
2013-04-07 17:44:00,70.1,61.0,29.67,South,171,15.0,27.0,74,0.00,,,0.00,weatherlink.com 1.10,2013-04-07 22:44:00,
2013-04-07 17:59:00,70.6,62.0,29.66,SSE,167,14.0,27.0,74,0.00,,,0.00,weatherlink.com 1.10,2013-04-07 22:59:00,
2013-04-07 18:14:00,70.6,62.0,29.65,SSE,148,19.0,26.0,73,0.00,,,0.00,weatherlink.com 1.10,2013-04-07 23:14:00,
2013-04-07 18:29:00,70.4,62.0,29.64,SSE,163,5.0,24.0,74,0.00,,,0.00,weatherlink.com 1.10,2013-04-07 23:29:00,
2013-04-07 18:44:00,70.5,62.0,29.64,SSE,147,12.0,22.0,74,0.00,,,0.00,weatherlink.com 1.10,2013-04-07 23:44:00,
2013-04-07 18:59:00,70.0,62.0,29.64,South,171,10.0,23.0,75,0.00,,,0.00,weatherlink.com 1.10,2013-04-07 23:59:00,
2013-04-07 19:14:00,69.8,62.0,29.65,SSE,151,7.0,22.0,75,0.00,,,0.00,weatherlink.com 1.10,2013-04-08 00:14:00,
2013-04-07 19:45:00,69.1,62.0,29.65,South,169,11.0,24.0,77,0.00,,,0.00,weatherlink.com 1.10,2013-04-08 00:45:00,
2013-04-07 20:00:00,68.9,62.0,29.65,SSE,154,10.0,18.0,78,0.00,,,0.00,weatherlink.com 1.10,2013-04-08 01:00:00,
2013-04-07 20:15:00,68.6,62.0,29.65,SSE,155,6.0,18.0,78,0.00,,,0.00,weatherlink.com 1.10,2013-04-08 01:15:00,
2013-04-07 20:30:00,68.3,62.0,29.65,SSE,154,11.0,19.0,79,0.00,,,0.00,weatherlink.com 1.10,2013-04-08 01:30:00,
2013-04-07 20:45:00,68.1,61.0,29.65,SSE,163,11.0,17.0,79,0.00,,,0.00,weatherlink.com 1.10,2013-04-08 01:45:00,
2013-04-07 21:00:00,68.0,61.0,29.65,SE,145,8.0,15.0,79,0.00,,,0.00,weatherlink.com 1.10,2013-04-08 02:00:00,
2013-04-07 21:15:00,67.9,61.0,29.65,SE,140,6.0,16.0,79,0.00,,,0.00,weatherlink.com 1.10,2013-04-08 02:15:00,
2013-04-07 21:30:00,67.7,61.0,29.66,SE,126,12.0,16.0,80,0.00,,,0.00,weatherlink.com 1.10,2013-04-08 02:30:00,
2013-04-07 21:45:00,67.7,61.0,29.66,SE,145,11.0,17.0,80,0.00,,,0.00,weatherlink.com 1.10,2013-04-08 02:45:00,
2013-04-07 22:00:00,67.6,61.0,29.66,SE,137,10.0,17.0,80,0.00,,,0.00,weatherlink.com 1.10,2013-04-08 03:00:00,
2013-04-07 22:15:00,67.6,61.0,29.66,SSE,147,8.0,18.0,80,0.00,,,0.00,weatherlink.com 1.10,2013-04-08 03:15:00,
2013-04-07 22:30:00,67.7,61.0,29.66,SSE,148,8.0,21.0,80,0.00,,,0.00,weatherlink.com 1.10,2013-04-08 03:30:00,
2013-04-07 22:45:00,67.6,61.0,29.66,SSE,155,7.0,17.0,80,0.00,,,0.00,weatherlink.com 1.10,2013-04-08 03:45:00,
2013-04-07 23:00:00,67.3,61.0,29.66,SSE,158,9.0,14.0,80,0.00,,,0.00,weatherlink.com 1.10,2013-04-08 04:00:00,
2013-04-07 23:15:00,67.4,61.0,29.66,SE,146,5.0,16.0,80,0.00,,,0.00,weatherlink.com 1.10,2013-04-08 04:15:00,
2013-04-07 23:30:00,67.5,61.0,29.66,SE,137,11.0,19.0,80,0.00,,,0.00,weatherlink.com 1.10,2013-04-08 04:30:00,
2013-04-07 23:45:00,67.4,61.0,29.65,SE,136,10.0,13.0,80,0.00,,,0.00,weatherlink.com 1.10,2013-04-08 04:45:00,